I5EKX-13 Weather Reports


Display with metric or nautical units.
time (UTC)temp
F
wind
direction
speed
MPH
gust
MPH
rain 1hr
in
rain 24hr
in
rain mn
in
humidity
%
barometer
mb
20260507003519 55 0.0 0.0 0.00 0.00 0.00 89 1008.7
20260507001515 54 0.0 0.0 0.00 0.00 0.00 87 1008.7
20260506235510 56 0.0 0.0 0.00 0.00 0.00 86 1008.8
20260506233505 56 0.0 0.0 0.00 0.00 0.00 86 1008.7
20260506231501 56 0.0 0.0 0.00 0.00 0.00 87 1008.8
20260506225456 57 0.0 0.0 0.00 0.00 0.00 86 1008.8
20260506223451 57 0.0 0.0 0.00 0.00 0.00 87 1008.9
20260506221446 57 0.0 0.0 0.00 0.00 0.00 87 1008.7
20260506215441 59 0.0 0.0 0.00 0.00 0.00 85 1008.7
20260506213437 59 0.0 0.0 0.00 0.00 0.00 85 1008.6
20260506211432 59 0.0 0.0 0.00 0.00 0.00 87 1008.7
20260506203423 59 0.0 0.0 0.00 0.00 0.00 86 1008.4
20260506201418 59 0.0 0.0 0.00 0.00 0.00 86 1008.3
20260506195413 61 0.0 0.0 0.00 0.00 0.00 82 1008.1
20260506193409 59 0.0 0.0 0.00 0.00 0.00 86 1007.9
20260506191403 60 0.0 0.0 0.00 0.00 0.00 86 1007.5
20260506185359 62 0.0 0.0 0.00 0.00 0.00 83 1007.3
20260506183354 64 0.0 0.0 0.00 0.00 0.00 78 1007.0
20260506181350 64 0.0 0.0 0.00 0.00 0.00 76 1006.9
20260506175345 65 0.0 0.0 0.00 0.00 0.00 76 1006.8
20260506173340 65 0.0 0.0 0.00 0.00 0.00 74 1006.8
20260506171336 66 0.0 0.0 0.00 0.00 0.00 72 1006.6
20260506165331 66 0.0 0.0 0.00 0.00 0.00 74 1006.7
20260506163326 65 0.0 0.0 0.00 0.00 0.00 75 1006.7
20260506161321 66 0.0 0.0 0.00 0.00 0.00 72 1006.8
20260506155316 66 0.0 0.0 0.00 0.00 0.00 70 1006.8
20260506145305 68 0.0 0.0 0.00 0.00 0.00 66 1006.6
20260506143257 68 0.0 0.0 0.00 0.00 0.00 69 1006.5
20260506141252 69 0.0 0.0 0.00 0.00 0.00 71 1006.7
20260506135248 70 0.0 0.0 0.00 0.00 0.00 74 1006.6
20260506133243 68 0.0 0.0 0.00 0.00 0.00 82 1006.8
20260506131238 68 0.0 0.0 0.00 0.00 0.00 80 1006.9
20260506125233 66 0.0 0.0 0.00 0.00 0.00 83 1006.9
20260506123228 68 0.0 0.0 0.00 0.00 0.00 79 1006.9
20260506121223 70 0.0 0.0 0.00 0.00 0.00 76 1007.0
20260506113215 71 0.0 0.0 0.00 0.00 0.00 75 1006.6
20260506111210 69 0.0 0.0 0.00 0.00 0.00 77 1006.8
20260506105206 69 0.0 0.0 0.00 0.00 0.00 77 1006.8
20260506103202 67 0.0 0.0 0.00 0.00 0.00 82 1006.9
20260506101158 70 0.0 0.0 0.00 0.00 0.00 77 1006.9
20260506095153 70 0.0 0.0 0.00 0.00 0.00 76 1006.5
20260506093150 67 0.0 0.0 0.00 0.00 0.00 80 1006.5
20260506092735 67 0.0 0.0 0.00 0.00 0.00 82 1006.5
20260506090730 64 0.0 0.0 0.00 0.00 0.00 84 1006.3
20260506084725 64 0.0 0.0 0.00 0.00 0.00 85 1006.3
20260506082720 63 0.0 0.0 0.00 0.00 0.00 87 1006.2
20260506072706 62 0.0 0.0 0.00 0.00 0.00 87 1006.0
20260506070701 62 0.0 0.0 0.00 0.00 0.00 89 1006.1
20260506060647 61 0.0 0.0 0.00 0.00 0.00 92 1006.0
20260506050632 60 0.0 0.0 0.00 0.00 0.00 94 1005.6
20260506044628 60 0.0 0.0 0.00 0.00 0.00 93 1005.6
20260506042623 60 0.0 0.0 0.00 0.00 0.00 93 1005.7
20260506040619 60 0.0 0.0 0.00 0.00 0.00 93 1005.8
20260506034613 60 0.0 0.0 0.00 0.00 0.00 94 1005.5
20260506032609 60 0.0 0.0 0.00 0.00 0.00 94 1005.9
20260506030604 60 0.0 0.0 0.00 0.00 0.00 94 1005.9
20260506024559 61 0.0 0.0 0.00 0.00 0.00 94 1005.6
20260506022555 61 0.0 0.0 0.00 0.00 0.00 94 1005.7
20260506020550 61 0.0 0.0 0.00 0.00 0.00 93 1006.2
20260506014545 61 0.0 0.0 0.00 0.00 0.00 91 1006.0
20260506012540 60 0.0 0.0 0.00 0.00 0.00 93 1006.3
20260506010536 60 0.0 0.0 0.00 0.00 0.00 94 1006.5
20260506004530 60 0.0 0.0 0.00 0.00 0.00 94 1006.5